Temp
3 4 4 3 3 3 3 3 3 3 3 3 3 3 2 2 3 3 3 3 3 3 3 3 2 2 1 1 2 3 4 4 4 5 5 5 5 5 5 5 5 5 4
3 3 3 3 3 3 3 3 3 4 3 2 1 1 1 2 2 2 2 2 3 2 3 2 2 1 1 3 2 2 2 3 3 4 4 4 4 4 4 4 4 4 4
2 2 3 3 3 3 3 3 2 1 2 1 2 0 1 2 1 2 2 2 2 2 2 2 2 2 2 1 2 1 2 2 3 3 3 3 3 3 3 3 3 3 3
1 1 2 2 2 2 3 3 3 2 1 1 2 -0 0 1 1 2 3 2 2 2 2 2 2 1 1 1 1 1 1 1 1 2 2 2 2 3 3 3 3 2 2
0 0 0 1 1 2 2 2 2 2 1 1 1 1 1 1 0 1 1 1 1 2 1 1 1 1 1 1 1 1 1 0 1 1 1 2 2 2 2 2 2 2 2
-0 0 0 0 0 1 1 2 2 1 0 1 1 -0 0 1 1 1 1 1 1 1 1 1 1 1 1 1 1 1 1 -0 0 1 1 1 1 1 1 1 1 1 1
-1 -0 -0 -0 0 -0 0 1 1 1 -0 0 -0 0 1 1 0 0 1 1 1 1 1 1 1 1 1 2 1 0 1 1 -0 0 0 0 0 0 1 1 1 1 1
-1 -1 -0 -1 -1 -0 -0 -0 0 0 -0 -0 -0 -0 1 0 1 0 0 0 0 1 1 1 1 1 1 1 1 0 -0 -0 -1 -0 -0 -1 -1 -0 -0 0 0 0 1
-2 -2 -1 -1 -1 -1 -1 -1 -0 0 -0 -1 -1 -1 -0 -0 0 0 -0 0 0 0 0 1 0 0 0 0 0 0 0 -0 -0 -1 -1 -1 -1 -1 -0 -0 -0 -0 0
-3 -3 -2 -2 -2 -1 -1 -1 -1 -1 -1 -1 -1 -0 -1 -0 -1 0 -0 -0 -0 0 0 0 0 0 0 -0 -0 -0 -0 -0 -1 -1 -1 -1 -1 -1 -1 -1 -1 -1 -1
-4 -4 -3 -3 -2 -2 -2 -2 -1 -1 -1 -1 -1 -1 -1 -1 -1 -1 -1 -1 0 0 -0 -0 -1 0 1 -0 -0 -0 -0 -1 -1 -1 -1 -2 -2 -2 -2 -2 -1 -2 -1
-5 -5 -4 -4 -3 -3 -2 -2 -2 -2 -1 -1 -1 -2 -2 -2 -2 -2 -1 -1 -1 -0 -1 -1 -0 -0 -0 -0 0 -0 -1 -1 -1 -2 -2 -1 -2 -2 -2 -2 -2 -2 -2
-4 -5 -5 -5 -4 -4 -3 -3 -3 -2 -2 -2 -2 -2 -2 -2 -2 -1 -1 -1 -2 -2 -1 -0 -1 -0 -1 -1 -1 -0 -1 -1 -1 -2 -2 -2 -3 -2 -2 -2 -2 -2 -2
-4 -4 -5 -4 -4 -4 -5 -4 -3 -3 -3 -2 -2 -2 -3 -3 -3 -3 -2 -3 -2 -2 -2 -1 -1 -1 -1 -1 -1 -1 -1 -1 -2 -2 -2 -2 -2 -2 -2 -2 -2 -4 -3
-5 -5 -5 -4 -4 -4 -5 -5 -4 -4 -3 -3 -3 -3 -2 -2 -3 -3 -3 -3 -3 -2 -2 -2 -2 -2 -2 -2 -1 -2 -2 -1 -2 -2 -2 -2 -2 -3 -3 -3 -4 -3 -3
-6 -5 -5 -5 -5 -4 -5 -5 -5 -4 -4 -3 -3 -3 -3 -3 -2 -3 -3 -3 -3 -3 -3 -2 -2 -2 -2 -2 -2 -2 -2 -2 -2 -2 -3 -2 -3 -3 -4 -4 -5 -4 -3
-6 -6 -6 -6 -5 -5 -5 -5 -5 -4 -4 -4 -3 -3 -3 -3 -3 -3 -5 -4 -3 -3 -3 -3 -3 -3 -3 -2 -3 -2 -3 -3 -3 -3 -3 -3 -3 -3 -4 -4 -4 -4 -3
-6 -6 -6 -6 -6 -6 -5 -5 -5 -5 -4 -4 -4 -3 -3 -3 -4 -4 -6 -4 -4 -4 -4 -3 -3 -3 -3 -3 -3 -3 -3 -3 -3 -4 -3 -3 -4 -4 -4 -4 -5 -4 -4
-7 -7 -7 -7 -7 -7 -7 -6 -6 -5 -5 -4 -4 -4 -3 -3 -5 -5 -5 -5 -4 -4 -4 -4 -4 -3 -4 -3 -3 -3 -4 -4 -3 -4 -4 -4 -4 -5 -4 -5 -5 -5 -4
-8 -8 -7 -7 -7 -7 -7 -7 -6 -6 -5 -4 -4 -4 -5 -5 -6 -6 -5 -5 -5 -4 -4 -4 -4 -4 -4 -4 -4 -4 -4 -4 -4 -5 -5 -4 -4 -4 -5 -6 -6 -4 -5
-8 -7 -7 -7 -7 -7 -7 -8 -7 -6 -6 -5 -5 -5 -5 -5 -6 -5 -6 -6 -5 -4 -5 -5 -5 -4 -4 -4 -4 -4 -4 -5 -4 -5 -4 -5 -5 -5 -5 -5 -5 -6 -5
-8 -8 -7 -7 -7 -7 -8 -8 -7 -7 -6 -5 -5 -5 -5 -5 -5 -5 -5 -5 -5 -4 -5 -5 -4 -5 -4 -5 -5 -4 -5 -4 -5 -5 -5 -5 -5 -6 -6 -5 -6 -5 -6
-8 -8 -8 -8 -8 -7 -8 -8 -8 -7 -6 -6 -4 -5 -5 -5 -5 -5 -5 -4 -4 -4 -5 -5 -4 -4 -5 -5 -5 -5 -5 -5 -5 -5 -5 -5 -7 -7 -6 -6 -6 -6 -6
-8 -8 -8 -8 -8 -8 -8 -8 -7 -7 -6 -5 -5 -5 -5 -5 -5 -5 -4 -4 -5 -5 -5 -5 -4 -5 -5 -5 -5 -5 -5 -5 -5 -5 -6 -6 -6 -6 -6 -6 -6 -6 -7
-9 -9 -9 -9 -8 -8 -8 -7 -7 -6 -5 -5 -5 -5 -5 -5 -5 -5 -5 -4 -5 -5 -5 -5 -5 -5 -5 -5 -6 -5 -5 -5 -5 -6 -6 -6 -6 -6 -7 -7 -7 -7 -7
-10 -10 -10 -9 -8 -8 -8 -7 -6 -6 -6 -5 -6 -5 -5 -5 -5 -5 -5 -4 -5 -5 -5 -5 -5 -5 -5 -5 -5 -6 -6 -6 -6 -6 -6 -6 -6 -7 -7 -7 -7 -7 -7
Height
3120 3120 3122 3123 3125 3125 3128 3126 3126 3125 3125 3128 3132 3134 3135 3139 3141 3141 3142 3144 3145 3148 3148 3148 3149 3149 3150 3150 3151 3151 3152 3153 3153 3154 3155 3155 3156 3156 3157 3158 3159 3160 3161
3115 3116 3115 3115 3117 3119 3119 3119 3118 3116 3113 3114 3121 3131 3130 3133 3136 3136 3138 3139 3141 3141 3144 3145 3146 3146 3146 3147 3149 3150 3150 3150 3150 3151 3151 3152 3153 3153 3154 3155 3155 3156 3157
3110 3110 3110 3109 3109 3111 3112 3112 3113 3113 3113 3111 3113 3123 3123 3125 3130 3135 3134 3133 3134 3136 3137 3141 3143 3142 3143 3143 3144 3146 3147 3148 3148 3148 3148 3149 3149 3150 3150 3151 3151 3152 3152
3105 3104 3104 3103 3103 3104 3104 3104 3105 3106 3108 3107 3111 3109 3114 3118 3121 3124 3128 3128 3129 3132 3134 3136 3137 3138 3139 3139 3140 3142 3142 3143 3144 3145 3145 3145 3146 3146 3146 3146 3147 3147 3148
3101 3100 3099 3098 3098 3098 3098 3097 3098 3099 3100 3103 3103 3103 3106 3110 3114 3116 3120 3121 3124 3126 3129 3131 3132 3133 3135 3136 3135 3137 3138 3140 3140 3140 3140 3141 3142 3142 3143 3143 3143 3143 3144
3095 3094 3093 3091 3091 3092 3092 3091 3091 3092 3095 3097 3097 3098 3102 3104 3106 3109 3112 3115 3118 3120 3123 3126 3127 3128 3130 3130 3132 3132 3133 3135 3136 3136 3136 3136 3137 3138 3138 3139 3139 3139 3139
3087 3087 3086 3085 3084 3085 3085 3085 3085 3085 3087 3089 3091 3093 3093 3096 3098 3101 3106 3109 3112 3114 3116 3119 3121 3123 3125 3126 3126 3127 3129 3131 3132 3132 3132 3132 3132 3133 3134 3134 3134 3134 3134
3078 3078 3078 3078 3077 3077 3078 3079 3079 3078 3079 3081 3084 3085 3086 3089 3091 3095 3099 3102 3105 3105 3109 3112 3113 3115 3118 3120 3122 3123 3124 3125 3127 3128 3128 3129 3129 3129 3130 3129 3130 3129 3128
3069 3068 3067 3067 3068 3068 3070 3071 3072 3072 3073 3075 3077 3079 3080 3081 3085 3088 3091 3093 3095 3098 3101 3102 3102 3107 3110 3112 3114 3116 3118 3119 3121 3123 3123 3124 3125 3125 3125 3125 3125 3125 3124
3061 3058 3058 3057 3057 3058 3060 3062 3064 3064 3066 3067 3069 3071 3071 3074 3076 3079 3082 3085 3086 3089 3092 3092 3096 3100 3102 3103 3105 3108 3111 3113 3114 3115 3118 3118 3119 3120 3120 3119 3119 3119 3118
3054 3051 3049 3048 3049 3048 3050 3052 3054 3056 3057 3058 3060 3063 3065 3066 3067 3070 3072 3076 3079 3080 3083 3084 3085 3089 3092 3097 3097 3101 3102 3104 3107 3109 3111 3112 3113 3115 3115 3114 3114 3113 3112
3047 3044 3042 3041 3040 3040 3041 3042 3044 3046 3048 3050 3052 3053 3055 3057 3060 3062 3064 3068 3070 3073 3075 3077 3078 3081 3084 3087 3090 3093 3095 3096 3098 3102 3105 3105 3107 3108 3109 3109 3108 3108 3107
3037 3035 3033 3033 3032 3031 3032 3033 3034 3036 3038 3040 3043 3045 3046 3048 3049 3053 3055 3057 3062 3065 3067 3070 3070 3070 3072 3078 3081 3084 3086 3088 3092 3095 3098 3098 3100 3102 3103 3103 3102 3101 3100
3026 3025 3023 3022 3023 3023 3023 3023 3024 3026 3028 3030 3033 3036 3038 3040 3041 3043 3047 3049 3054 3056 3058 3062 3062 3064 3066 3070 3074 3076 3078 3081 3085 3088 3089 3090 3093 3094 3095 3095 3094 3094 3093
3016 3015 3013 3012 3012 3013 3013 3013 3014 3017 3018 3021 3023 3026 3027 3030 3033 3036 3039 3042 3046 3048 3052 3055 3056 3058 3060 3064 3066 3069 3072 3075 3077 3079 3082 3083 3085 3087 3088 3088 3088 3086 3085
3004 3004 3003 3002 3002 3002 3003 3003 3005 3007 3008 3010 3013 3016 3018 3020 3023 3027 3030 3033 3038 3041 3044 3046 3050 3051 3053 3056 3060 3065 3066 3068 3070 3072 3074 3077 3078 3080 3081 3081 3081 3080 3078
2993 2992 2991 2991 2991 2992 2993 2993 2994 2995 2997 2999 3002 3005 3008 3011 3013 3017 3021 3025 3029 3032 3036 3039 3042 3044 3047 3050 3054 3056 3057 3059 3063 3066 3068 3070 3071 3073 3075 3074 3073 3071 3071
2983 2981 2980 2980 2980 2981 2982 2982 2983 2984 2985 2988 2991 2994 2997 3001 3003 3006 3011 3015 3020 3025 3027 3031 3034 3037 3040 3043 3046 3048 3050 3052 3056 3059 3061 3063 3065 3067 3067 3066 3065 3063 3062
2972 2970 2968 2968 2968 2969 2969 2971 2971 2973 2974 2977 2980 2983 2986 2989 2992 2996 3000 3006 3011 3016 3018 3023 3027 3031 3034 3036 3038 3042 3043 3047 3050 3051 3054 3057 3058 3059 3059 3058 3056 3055 3054
2961 2959 2958 2957 2957 2957 2958 2960 2960 2962 2964 2967 2969 2972 2976 2978 2982 2987 2991 2996 3002 3006 3010 3014 3019 3022 3026 3028 3031 3034 3037 3040 3042 3044 3047 3049 3050 3051 3051 3049 3048 3048 3046
2951 2949 2948 2947 2946 2946 2947 2948 2950 2951 2954 2957 2960 2963 2964 2968 2973 2977 2982 2986 2992 2997 3001 3004 3009 3013 3016 3021 3024 3027 3029 3031 3034 3037 3038 3041 3043 3042 3042 3042 3041 3040 3038
2941 2938 2937 2935 2936 2936 2938 2938 2939 2941 2943 2946 2948 2953 2956 2959 2963 2967 2973 2978 2984 2989 2994 2996 3000 3005 3009 3013 3017 3020 3022 3024 3027 3030 3031 3033 3034 3034 3035 3034 3033 3032 3031
2929 2927 2926 2925 2925 2926 2928 2929 2929 2930 2933 2935 2938 2941 2945 2947 2954 2959 2964 2970 2975 2981 2985 2990 2994 2997 3002 3007 3010 3012 3015 3017 3020 3023 3025 3026 3027 3027 3027 3026 3026 3024 3022
2917 2916 2915 2914 2915 2917 2918 2918 2920 2921 2924 2926 2927 2931 2937 2942 2946 2950 2953 2962 2968 2973 2978 2983 2987 2992 2995 2998 3002 3005 3008 3010 3013 3015 3017 3019 3019 3020 3019 3019 3018 3016 3014
2907 2906 2905 2906 2906 2908 2909 2910 2911 2913 2914 2916 2920 2924 2929 2934 2938 2945 2950 2951 2960 2965 2972 2977 2981 2985 2989 2992 2996 2999 3001 3004 3007 3009 3010 3012 3012 3012 3012 3011 3010 3009 3008
2900 2899 2899 2899 2900 2901 2901 2902 2903 2904 2906 2909 2914 2918 2922 2926 2932 2938 2943 2950 2956 2959 2965 2970 2975 2979 2983 2987 2989 2992 2995 2998 3001 3002 3005 3006 3005 3006 3006 3005 3004 3003 3001
Wind_Speed
22 23 27 28 29 30 31 29 31 32 40 35 26 25 17 22 22 21 21 16 15 16 14 15 16 18 18 11 10 10 11 12 13 12 12 12 12 12 12 11 12 12 12
17 18 23 25 27 30 29 29 28 39 22 26 7 22 17 12 15 18 19 21 22 20 21 18 22 21 21 17 12 14 12 10 11 12 12 13 13 12 12 13 13 13 14
15 16 18 21 23 25 27 32 34 33 31 42 36 30 32 25 13 18 18 19 20 19 26 23 25 26 21 21 21 16 16 15 13 11 12 13 14 14 14 14 14 15 16
17 17 18 19 21 21 23 26 27 27 28 31 40 24 24 24 18 19 26 22 20 20 29 30 25 24 24 23 24 21 18 15 14 15 15 14 15 16 16 16 16 17 17
23 22 21 20 21 21 20 22 23 27 28 26 24 12 26 28 30 27 29 25 22 19 24 33 31 24 23 23 20 21 16 16 11 15 15 16 17 18 18 18 18 18 18
28 28 27 26 23 22 22 21 21 22 20 19 22 19 29 27 28 31 34 29 27 23 19 28 33 30 24 26 24 20 19 19 22 17 15 15 15 15 16 16 17 18 19
30 30 29 29 29 26 23 22 22 23 27 25 29 32 28 29 29 33 35 31 31 30 26 28 33 35 33 32 28 28 28 25 26 21 14 12 11 11 12 14 15 17 19
32 31 31 29 30 29 27 24 24 24 23 27 31 28 32 33 31 34 36 33 35 32 33 33 34 39 39 38 36 31 32 32 26 20 15 12 11 11 12 14 14 16 17
35 33 33 32 31 31 29 28 26 26 26 28 32 32 32 31 31 29 37 35 36 42 39 42 38 37 42 44 37 32 36 27 27 19 17 15 13 13 16 16 16 17 17
30 30 29 29 29 31 31 30 30 29 29 29 32 35 37 38 33 41 37 30 33 36 38 43 41 40 39 38 45 41 35 37 35 22 21 20 20 16 15 15 16 17 18
27 27 28 28 29 28 27 30 32 33 32 32 29 38 39 41 43 42 39 35 31 23 38 37 40 44 41 37 36 37 31 38 26 26 25 21 24 16 17 19 20 18 20
28 28 26 26 27 28 28 28 31 34 34 35 34 34 36 39 45 43 42 36 41 39 39 33 33 44 44 40 34 36 28 37 29 25 23 27 25 18 21 21 19 21 23
30 30 29 27 26 27 27 28 29 33 35 37 36 38 34 34 35 40 43 47 34 39 35 36 36 30 38 31 28 36 32 36 31 27 29 31 29 26 25 24 22 24 26
32 30 29 30 29 28 27 27 29 30 33 36 37 38 38 39 34 30 32 34 40 39 32 36 33 34 33 31 24 30 35 41 32 34 26 33 34 26 21 28 30 28 29
32 30 29 30 31 31 29 28 28 29 31 33 36 37 40 40 40 34 31 35 34 27 37 43 37 29 25 34 28 31 31 25 27 27 34 41 31 30 27 29 31 31 32
34 33 30 30 30 31 33 31 30 29 31 32 34 36 38 39 39 37 36 36 41 44 33 33 30 28 25 34 32 32 28 29 25 31 30 39 35 30 26 24 31 35 31
36 35 33 31 32 32 33 35 33 31 31 32 33 35 38 39 40 38 35 36 36 41 43 40 34 26 29 27 26 26 25 30 27 26 24 36 34 33 30 32 34 35 34
34 34 34 33 33 33 33 34 35 33 32 33 33 36 37 39 36 37 36 35 31 41 42 39 36 26 24 24 31 30 27 24 24 26 28 34 31 35 32 31 35 37 35
31 31 33 33 32 32 32 32 34 33 33 33 34 36 37 36 37 38 35 37 32 30 32 31 39 33 30 32 23 26 29 24 26 21 23 27 30 30 32 35 38 36 33
30 30 31 32 32 32 32 31 33 34 33 33 33 32 31 31 35 36 33 38 36 32 38 34 35 34 33 26 27 29 29 25 26 28 26 27 28 31 35 31 36 33 32
33 33 32 31 32 32 31 31 32 33 32 32 31 30 27 32 32 33 32 36 37 45 32 30 34 34 34 35 27 27 26 32 29 24 27 29 27 27 33 34 31 31 32
34 34 33 31 30 32 30 30 31 33 30 34 31 38 32 33 36 31 30 38 35 34 36 28 28 34 31 33 24 22 25 31 30 25 24 30 25 29 33 32 31 32 30
34 32 31 30 28 29 28 29 30 33 31 33 32 35 40 40 28 37 35 37 31 32 24 29 30 26 22 25 25 21 23 25 23 26 27 26 29 31 31 31 32 29 31
31 29 27 26 26 24 26 27 28 31 30 29 31 30 34 29 27 30 28 30 31 32 30 25 23 24 24 22 22 24 23 22 26 28 26 26 27 28 29 28 28 28 28
25 24 23 22 22 21 24 25 26 28 27 25 25 36 30 31 30 38 30 30 30 25 28 25 31 25 27 18 22 25 24 25 24 24 25 25 24 25 25 26 25 23 25
20 19 17 18 19 21 21 21 23 24 23 26 25 30 28 27 32 30 33 34 30 25 31 28 21 23 25 19 15 18 22 23 22 23 22 22 23 24 23 20 21 23 24
Wind_Direction
259 258 255 254 251 250 248 253 256 257 252 249 247 248 242 240 249 257 246 241 227 224 228 241 253 266 282 270 245 239 238 238 237 237 234 230 227 228 229 232 235 239 241
264 256 254 255 254 253 255 254 256 236 221 204 188 274 230 239 256 249 253 248 231 209 212 233 244 258 270 273 276 260 250 245 241 237 235 235 232 231 234 236 240 244 249
274 268 262 260 257 254 253 256 258 266 246 255 266 288 241 228 226 273 256 252 250 228 207 211 237 253 257 275 278 267 263 253 251 248 244 240 238 238 239 241 244 247 251
285 280 274 268 266 263 257 256 254 256 251 261 267 243 232 224 218 222 235 239 241 242 216 216 230 237 247 255 266 272 280 247 258 259 257 255 252 248 246 247 250 255 259
287 286 284 279 272 269 264 260 256 252 250 254 263 239 218 244 246 238 237 235 235 238 224 218 224 241 232 247 256 260 274 258 275 272 265 259 255 255 255 256 259 263 267
287 286 285 281 278 274 265 259 255 243 245 246 243 241 245 240 248 230 232 236 231 230 231 223 226 236 236 252 255 255 271 272 281 288 265 256 255 260 263 265 268 271 273
284 282 280 278 275 273 272 263 256 254 237 234 238 234 235 252 242 234 233 233 234 232 233 227 225 233 231 232 252 261 263 265 271 286 262 251 251 256 264 272 274 276 280
287 282 277 272 271 270 267 264 255 253 246 240 240 242 242 242 240 239 235 239 241 235 236 233 232 229 234 239 246 246 257 269 265 273 255 255 259 269 277 278 281 283 283
286 283 278 275 271 268 263 259 256 249 251 235 240 239 242 240 230 234 233 242 249 244 243 242 232 230 234 240 244 247 253 244 264 255 247 256 267 276 291 279 278 283 286
286 284 278 274 270 266 260 254 252 250 247 245 241 233 238 239 247 243 239 250 254 253 255 245 243 238 241 244 239 243 247 246 250 249 253 243 259 271 286 274 274 281 287
284 282 281 277 270 267 264 255 248 247 245 245 244 236 243 246 248 252 256 237 252 248 247 256 239 240 237 246 241 247 243 239 238 250 252 269 264 263 280 265 267 272 278
278 275 274 273 273 268 262 260 253 247 245 246 244 247 246 247 248 254 254 252 251 257 255 256 252 242 241 247 240 248 246 239 243 241 253 259 261 274 275 273 271 274 285
280 275 271 268 267 268 264 258 255 251 247 246 246 244 248 255 255 252 256 257 252 251 255 248 254 231 226 241 237 230 239 244 242 240 242 255 258 266 274 267 281 281 288
284 278 273 269 263 262 264 263 258 255 250 247 247 249 252 244 255 261 257 250 246 250 247 248 244 244 240 243 232 246 238 227 240 248 264 247 254 253 262 277 282 290 290
284 279 277 271 266 261 261 262 261 256 253 251 250 250 251 248 250 257 254 241 233 250 258 249 254 258 238 242 244 244 241 243 248 257 256 251 255 263 271 274 282 292 292
284 281 276 273 268 263 259 259 258 258 254 251 250 250 251 254 251 251 246 241 238 246 252 251 252 258 245 236 233 225 237 241 250 251 253 253 256 263 262 270 279 284 286
283 280 276 272 268 263 258 254 257 256 256 252 249 250 250 251 252 247 246 239 242 243 249 253 254 249 256 245 249 254 252 245 249 245 247 248 254 267 264 275 281 283 284
282 280 276 272 268 263 258 254 251 254 254 254 252 250 251 249 248 243 237 234 242 243 248 250 249 245 246 254 248 248 246 245 247 245 246 246 262 259 261 267 277 281 283
285 282 279 274 271 267 263 259 254 253 254 253 251 250 250 250 243 241 241 229 230 234 241 247 243 242 238 227 235 234 252 242 249 245 239 247 262 266 262 268 273 279 288
289 285 281 274 270 268 266 262 253 250 249 252 251 242 247 246 240 237 232 229 223 233 237 245 238 243 240 233 243 246 244 233 248 241 249 261 257 253 261 271 276 282 286
289 284 281 277 269 267 268 265 257 247 247 248 243 233 243 240 234 234 232 221 223 228 231 240 238 238 237 240 245 253 252 247 252 238 242 249 261 253 262 272 279 284 288
290 284 278 275 268 260 263 264 258 245 250 246 248 234 235 237 231 236 231 221 223 230 243 240 236 236 236 240 235 244 244 237 239 256 262 252 247 254 269 278 280 283 284
288 282 276 273 266 255 257 261 253 247 253 250 257 240 238 240 230 222 217 216 224 235 235 236 246 224 228 231 231 240 244 248 239 245 254 247 268 274 276 274 277 280 285
285 280 276 271 266 255 257 259 251 247 258 259 244 228 230 219 223 222 218 211 229 232 237 231 216 227 242 222 233 229 230 245 237 242 251 261 262 266 269 272 277 281 281
286 282 277 268 259 257 263 257 249 255 255 247 223 219 227 225 215 213 212 209 220 213 218 231 228 231 230 231 226 243 242 238 248 251 256 262 264 266 269 276 278 276 281
292 281 270 264 263 266 262 255 254 256 247 219 228 227 222 231 223 220 221 212 225 232 224 209 218 221 215 232 234 224 230 243 246 252 257 259 261 268 271 270 276 282 287